QPF
0.00 0.00 0.00 0.03 0.06 0.11 0.12 0.11 0.13 0.07 0.01 0.00 0.02 0.05 0.03 0.02 0.02 0.01 0.00 0.00 0.00 0.00 0.00 0.00 0.01 0.01 0.01 0.00 0.01 0.01 0.02 0.01 0.02 0.02 0.03 0.02 0.07 0.07 0.08 0.06 0.14 0.01 0.02
0.00 0.00 0.00 0.00 0.05 0.06 0.03 0.01 0.01 0.01 0.00 0.00 0.03 0.03 0.02 0.01 0.02 0.00 0.00 0.00 0.01 0.02 0.02 0.03 0.04 0.03 0.02 0.02 0.02 0.02 0.01 0.00 0.01 0.06 0.18 0.04 0.04 0.03 0.02 0.01 0.01 0.01 0.02
0.00 0.00 0.00 0.00 0.02 0.01 0.00 0.00 0.01 0.01 0.00 0.00 0.02 0.01 0.01 0.02 0.02 0.00 0.00 0.03 0.03 0.02 0.02 0.02 0.05 0.03 0.00 0.00 0.01 0.01 0.01 0.02 0.00 0.02 0.06 0.00 0.02 0.03 0.01 0.01 0.01 0.00 0.00
0.00 0.00 0.00 0.02 0.03 0.00 0.00 0.00 0.00 0.00 0.00 0.00 0.00 0.00 0.00 0.01 0.02 0.02 0.00 0.03 0.06 0.04 0.03 0.01 0.01 0.01 0.00 0.00 0.00 0.00 0.00 0.04 0.03 0.00 0.00 0.00 0.00 0.03 0.03 0.01 0.01 0.04 0.02
0.01 0.01 0.00 0.00 0.00 0.00 0.00 0.00 0.00 0.00 0.00 0.00 0.00 0.02 0.03 0.04 0.03 0.03 0.03 0.05 0.06 0.04 0.06 0.04 0.04 0.02 0.03 0.00 0.00 0.00 0.00 0.00 0.00 0.00 0.00 0.00 0.00 0.00 0.00 0.04 0.02 0.01 0.02
0.02 0.02 0.00 0.00 0.00 0.00 0.00 0.00 0.00 0.00 0.00 0.00 0.03 0.08 0.07 0.10 0.06 0.03 0.01 0.01 0.01 0.01 0.02 0.02 0.01 0.01 0.02 0.00 0.00 0.00 0.00 0.00 0.00 0.00 0.00 0.00 0.00 0.00 0.00 0.00 0.00 0.00 0.00
0.01 0.00 0.00 0.00 0.00 0.00 0.00 0.00 0.00 0.00 0.01 0.03 0.01 0.06 0.06 0.05 0.03 0.02 0.00 0.01 0.00 0.00 0.00 0.00 0.00 0.00 0.01 0.00 0.00 0.00 0.00 0.00 0.00 0.00 0.00 0.00 0.00 0.00 0.01 0.00 0.00 0.00 0.00
0.00 0.00 0.00 0.00 0.00 0.00 0.00 0.00 0.00 0.00 0.05 0.10 0.01 0.03 0.08 0.02 0.01 0.00 0.00 0.00 0.00 0.01 0.01 0.00 0.00 0.00 0.00 0.00 0.00 0.00 0.00 0.00 0.00 0.00 0.00 0.00 0.00 0.00 0.01 0.01 0.01 0.00 0.00
0.00 0.00 0.00 0.00 0.00 0.00 0.00 0.00 0.00 0.00 0.02 0.04 0.07 0.04 0.02 0.00 0.00 0.00 0.00 0.00 0.00 0.00 0.00 0.00 0.00 0.00 0.00 0.00 0.00 0.00 0.00 0.00 0.00 0.00 0.00 0.00 0.00 0.00 0.00 0.00 0.00 0.00 0.00
0.00 0.01 0.00 0.00 0.00 0.00 0.00 0.00 0.00 0.00 0.00 0.01 0.02 0.00 0.00 0.00 0.00 0.00 0.01 0.00 0.00 0.00 0.00 0.00 0.00 0.00 0.00 0.00 0.00 0.00 0.00 0.00 0.00 0.00 0.00 0.00 0.00 0.00 0.00 0.00 0.00 0.00 0.00
0.00 0.00 0.00 0.00 0.00 0.00 0.00 0.00 0.00 0.00 0.03 0.03 0.02 0.00 0.01 0.00 0.00 0.01 0.01 0.00 0.00 0.00 0.00 0.00 0.00 0.00 0.00 0.00 0.00 0.00 0.00 0.00 0.00 0.00 0.00 0.00 0.00 0.00 0.00 0.00 0.00 0.00 0.00
0.00 0.00 0.00 0.00 0.00 0.00 0.00 0.00 0.00 0.01 0.01 0.01 0.01 0.00 0.00 0.00 0.00 0.00 0.00 0.00 0.00 0.00 0.00 0.00 0.00 0.00 0.00 0.00 0.00 0.00 0.00 0.00 0.00 0.00 0.00 0.00 0.00 0.00 0.00 0.00 0.00 0.00 0.00
0.00 0.00 0.00 0.00 0.00 0.00 0.00 0.00 0.00 0.00 0.00 0.00 0.00 0.00 0.00 0.00 0.00 0.00 0.00 0.00 0.00 0.00 0.00 0.00 0.00 0.00 0.00 0.00 0.00 0.00 0.00 0.00 0.00 0.00 0.00 0.00 0.00 0.00 0.00 0.00 0.00 0.00 0.00
0.00 0.00 0.00 0.00 0.00 0.00 0.00 0.00 0.00 0.00 0.00 0.00 0.00 0.00 0.00 0.00 0.00 0.00 0.00 0.00 0.00 0.00 0.00 0.00 0.00 0.00 0.00 0.00 0.00 0.00 0.00 0.00 0.00 0.00 0.00 0.00 0.00 0.00 0.00 0.00 0.00 0.00 0.00
0.00 0.00 0.00 0.00 0.00 0.00 0.00 0.00 0.00 0.00 0.00 0.00 0.00 0.00 0.00 0.00 0.00 0.00 0.00 0.00 0.00 0.00 0.00 0.00 0.00 0.00 0.00 0.00 0.00 0.00 0.00 0.00 0.00 0.00 0.00 0.00 0.00 0.00 0.00 0.00 0.00 0.00 0.00
0.00 0.00 0.00 0.00 0.00 0.00 0.00 0.00 0.00 0.00 0.00 0.00 0.00 0.00 0.00 0.00 0.00 0.00 0.00 0.00 0.00 0.00 0.00 0.00 0.00 0.00 0.00 0.00 0.00 0.00 0.00 0.00 0.00 0.00 0.00 0.00 0.00 0.00 0.00 0.00 0.00 0.00 0.00
0.00 0.00 0.00 0.00 0.00 0.00 0.00 0.00 0.00 0.00 0.00 0.00 0.00 0.00 0.00 0.00 0.00 0.00 0.00 0.00 0.00 0.00 0.00 0.00 0.00 0.00 0.00 0.00 0.00 0.00 0.00 0.00 0.00 0.00 0.00 0.00 0.00 0.00 0.00 0.00 0.00 0.00 0.00
0.00 0.00 0.00 0.00 0.00 0.00 0.00 0.00 0.00 0.00 0.00 0.00 0.00 0.00 0.00 0.00 0.00 0.00 0.00 0.00 0.00 0.00 0.00 0.00 0.00 0.00 0.00 0.00 0.00 0.00 0.00 0.00 0.00 0.00 0.00 0.00 0.00 0.00 0.00 0.00 0.00 0.00 0.00
0.00 0.00 0.00 0.00 0.00 0.00 0.00 0.00 0.00 0.00 0.00 0.00 0.00 0.00 0.00 0.00 0.00 0.00 0.00 0.00 0.00 0.00 0.00 0.00 0.00 0.00 0.00 0.00 0.00 0.00 0.00 0.00 0.00 0.00 0.00 0.00 0.00 0.00 0.00 0.00 0.00 0.00 0.00
0.00 0.00 0.00 0.00 0.00 0.00 0.00 0.00 0.00 0.00 0.00 0.00 0.00 0.00 0.00 0.00 0.00 0.00 0.00 0.00 0.00 0.00 0.00 0.00 0.00 0.00 0.00 0.00 0.00 0.00 0.00 0.00 0.00 0.00 0.00 0.00 0.00 0.00 0.00 0.00 0.00 0.00 0.00
0.00 0.00 0.00 0.00 0.00 0.00 0.00 0.00 0.00 0.00 0.00 0.00 0.00 0.00 0.00 0.00 0.00 0.00 0.00 0.00 0.00 0.00 0.00 0.00 0.00 0.00 0.00 0.00 0.00 0.00 0.00 0.00 0.00 0.00 0.00 0.00 0.00 0.00 0.00 0.00 0.00 0.00 0.00
0.00 0.00 0.00 0.00 0.01 0.01 0.00 0.00 0.00 0.00 0.00 0.00 0.00 0.00 0.00 0.00 0.00 0.00 0.00 0.00 0.00 0.00 0.00 0.00 0.00 0.00 0.00 0.00 0.00 0.00 0.00 0.00 0.00 0.00 0.00 0.00 0.00 0.00 0.00 0.00 0.00 0.00 0.00
0.00 0.00 0.00 0.00 0.01 0.02 0.00 0.01 0.01 0.04 0.02 0.00 0.00 0.00 0.00 0.00 0.00 0.00 0.00 0.00 0.00 0.00 0.00 0.00 0.00 0.00 0.00 0.00 0.00 0.00 0.00 0.00 0.00 0.00 0.00 0.00 0.00 0.00 0.00 0.00 0.00 0.00 0.00
0.00 0.00 0.00 0.00 0.00 0.01 0.03 0.04 0.09 0.03 0.01 0.01 0.00 0.00 0.00 0.00 0.00 0.00 0.00 0.00 0.00 0.00 0.00 0.00 0.00 0.00 0.00 0.00 0.00 0.00 0.00 0.00 0.00 0.00 0.00 0.00 0.00 0.00 0.00 0.00 0.00 0.00 0.00
0.00 0.00 0.00 0.00 0.00 0.00 0.06 0.17 0.04 0.01 0.01 0.02 0.00 0.00 0.00 0.00 0.00 0.00 0.00 0.00 0.02 0.01 0.00 0.00 0.00 0.00 0.00 0.00 0.00 0.00 0.00 0.00 0.00 0.00 0.00 0.00 0.00 0.00 0.00 0.00 0.00 0.00 0.00
0.00 0.00 0.00 0.00 0.00 0.00 0.02 0.02 0.02 0.02 0.02 0.05 0.01 0.00 0.00 0.00 0.00 0.00 0.00 0.00 0.00 0.00 0.00 0.00 0.00 0.00 0.00 0.00 0.00 0.00 0.00 0.00 0.00 0.00 0.00 0.00 0.00 0.00 0.00 0.00 0.00 0.00 0.00
MSLP
1013.99 1015.47 1016.27 1016.45 1016.55 1016.73 1016.73 1016.61 1016.59 1016.51 1016.33 1016.43 1016.51 1016.57 1016.57 1016.70 1016.73 1016.93 1016.97 1017.03 1017.06 1017.16 1017.17 1017.14 1017.21 1017.28 1017.27 1017.27 1017.30 1017.45 1017.48 1017.44 1017.33 1017.41 1017.41 1017.53 1017.73 1017.65 1017.46 1017.23 1016.73 1017.24 1017.85
1013.27 1015.07 1016.24 1016.51 1016.81 1016.88 1016.91 1016.75 1016.89 1016.71 1016.67 1016.75 1016.85 1016.83 1016.91 1017.01 1016.97 1017.22 1017.27 1017.35 1017.39 1017.54 1017.55 1017.67 1017.75 1017.75 1017.72 1017.69 1017.80 1017.78 1017.69 1017.64 1017.65 1017.58 1017.42 1017.70 1017.91 1017.86 1017.83 1017.64 1017.68 1018.07 1018.13
1013.54 1015.06 1015.92 1016.64 1016.76 1016.86 1016.98 1016.94 1017.01 1016.94 1016.93 1016.89 1017.17 1017.22 1017.34 1017.28 1017.39 1017.55 1017.63 1017.75 1017.84 1017.87 1017.99 1018.09 1018.05 1018.04 1018.08 1018.06 1018.14 1018.13 1018.05 1017.77 1017.69 1017.89 1017.68 1017.45 1018.19 1018.30 1018.28 1018.19 1018.31 1018.46 1018.49
1013.09 1014.13 1015.54 1016.64 1016.82 1017.01 1017.09 1017.11 1017.16 1017.20 1017.22 1017.38 1017.39 1017.43 1017.51 1017.59 1017.73 1017.77 1017.87 1018.08 1018.21 1018.22 1018.13 1018.24 1018.29 1018.31 1018.33 1018.47 1018.51 1018.49 1018.31 1018.01 1017.50 1017.01 1016.96 1017.40 1017.98 1018.67 1018.67 1018.69 1018.77 1018.75 1018.74
1013.93 1014.32 1016.14 1016.69 1016.93 1017.14 1017.29 1017.40 1017.41 1017.49 1017.53 1017.48 1017.50 1017.52 1017.69 1017.97 1018.10 1018.13 1018.35 1018.40 1018.47 1018.52 1018.47 1018.54 1018.65 1018.73 1018.63 1018.73 1018.85 1018.77 1018.49 1018.00 1017.71 1017.40 1017.73 1018.06 1018.36 1019.09 1019.06 1018.95 1018.89 1018.96 1018.97
1014.19 1015.00 1016.54 1016.91 1017.09 1017.29 1017.44 1017.49 1017.47 1017.54 1017.58 1017.66 1017.77 1017.99 1018.06 1018.32 1018.32 1018.51 1018.56 1018.57 1018.61 1018.63 1018.79 1018.78 1018.82 1018.82 1018.85 1019.00 1019.14 1019.15 1018.71 1018.16 1017.81 1017.59 1018.37 1018.88 1019.08 1019.38 1019.40 1019.40 1019.39 1019.41 1019.43
1014.05 1015.25 1016.37 1017.09 1017.25 1017.36 1017.55 1017.67 1017.69 1017.72 1017.86 1017.98 1018.11 1018.25 1018.46 1018.51 1018.61 1018.75 1018.80 1018.88 1018.95 1018.98 1019.05 1019.05 1019.04 1019.07 1019.19 1019.30 1019.41 1019.32 1018.92 1018.35 1018.06 1017.99 1018.68 1019.11 1019.54 1019.69 1019.63 1019.66 1019.65 1019.66 1019.62
1013.32 1014.67 1016.19 1017.19 1017.33 1017.57 1017.72 1017.80 1017.89 1018.06 1018.17 1018.37 1018.39 1018.58 1018.67 1018.71 1018.82 1018.94 1019.07 1019.13 1019.20 1019.29 1019.36 1019.35 1019.38 1019.41 1019.52 1019.56 1019.57 1019.48 1019.21 1018.70 1017.67 1018.01 1018.79 1019.45 1019.94 1019.91 1019.89 1019.89 1019.86 1019.79 1019.83
1014.22 1014.86 1015.73 1016.41 1017.46 1017.75 1017.91 1018.07 1018.20 1018.35 1018.39 1018.41 1018.61 1018.71 1018.86 1018.97 1019.05 1019.16 1019.31 1019.38 1019.45 1019.51 1019.56 1019.51 1019.56 1019.61 1019.70 1019.68 1019.62 1019.52 1019.16 1018.74 1018.20 1018.43 1018.36 1019.46 1020.18 1020.12 1020.08 1020.06 1020.05 1020.02 1019.99
1014.63 1015.80 1015.83 1016.29 1016.64 1016.89 1017.62 1018.26 1018.38 1018.53 1018.55 1018.63 1018.77 1018.91 1018.99 1019.10 1019.19 1019.37 1019.46 1019.59 1019.65 1019.67 1019.69 1019.68 1019.66 1019.70 1019.73 1019.66 1019.55 1019.44 1019.20 1018.94 1017.99 1018.19 1019.17 1020.06 1020.29 1020.21 1020.22 1020.22 1020.20 1020.11 1020.05
1015.28 1015.43 1015.86 1016.11 1017.08 1017.19 1017.49 1018.29 1018.47 1018.65 1018.73 1018.83 1018.92 1018.87 1018.72 1018.09 1018.51 1019.02 1019.59 1019.73 1019.75 1019.76 1019.75 1019.70 1019.57 1019.49 1019.58 1019.33 1019.08 1019.13 1019.17 1017.87 1017.81 1018.11 1019.43 1020.45 1020.35 1020.30 1020.31 1020.34 1020.27 1020.17 1020.08
1015.38 1015.83 1015.84 1015.58 1016.41 1016.91 1017.08 1017.81 1017.86 1018.23 1018.27 1018.25 1018.39 1018.23 1018.28 1018.15 1018.44 1018.90 1019.58 1019.83 1019.71 1019.54 1019.49 1019.44 1019.11 1018.97 1019.19 1018.67 1018.34 1018.84 1018.20 1018.21 1018.20 1018.47 1019.69 1020.44 1020.34 1020.32 1020.32 1020.33 1020.28 1020.19 1020.10
1014.73 1015.10 1016.05 1016.75 1017.04 1016.63 1017.02 1016.87 1016.91 1017.82 1017.98 1018.55 1018.42 1018.06 1018.43 1018.53 1018.63 1018.59 1019.00 1018.98 1018.94 1019.03 1019.12 1018.65 1018.69 1018.54 1017.74 1017.49 1017.43 1017.67 1017.93 1018.06 1018.25 1018.74 1020.05 1020.33 1020.37 1020.33 1020.32 1020.31 1020.29 1020.21 1020.09
1014.65 1015.14 1015.50 1016.10 1016.80 1016.76 1016.95 1016.53 1016.74 1017.63 1018.13 1017.99 1018.38 1018.48 1018.44 1018.31 1018.53 1018.33 1017.99 1018.40 1018.39 1018.18 1018.39 1017.59 1018.07 1018.41 1018.41 1018.05 1017.65 1017.75 1017.82 1017.86 1018.05 1018.77 1020.05 1020.33 1020.37 1020.40 1020.39 1020.34 1020.29 1020.23 1020.02
1014.57 1015.14 1015.97 1016.66 1017.45 1017.43 1017.06 1016.99 1016.99 1017.39 1018.09 1018.27 1018.48 1018.75 1018.51 1018.71 1018.74 1018.98 1018.85 1018.53 1018.11 1018.05 1017.99 1017.92 1018.04 1018.16 1018.24 1017.91 1017.94 1017.95 1018.17 1018.34 1018.05 1018.31 1019.45 1020.28 1020.29 1020.38 1020.41 1020.33 1020.25 1020.11 1019.92
1014.70 1015.45 1016.52 1017.51 1017.92 1017.63 1017.49 1017.54 1017.66 1018.42 1017.89 1017.93 1018.34 1018.58 1018.51 1018.79 1018.91 1018.73 1018.63 1018.34 1018.52 1018.12 1018.11 1018.26 1018.24 1017.71 1017.50 1018.05 1018.34 1018.18 1018.05 1018.38 1018.61 1018.19 1018.90 1019.85 1020.19 1020.27 1020.30 1020.25 1020.14 1020.01 1019.88
1014.91 1015.93 1016.77 1017.26 1017.43 1017.75 1018.02 1017.95 1017.90 1017.50 1017.98 1018.34 1018.60 1019.17 1019.12 1018.97 1019.26 1018.83 1018.75 1018.92 1018.65 1019.07 1018.83 1018.51 1018.17 1017.72 1017.41 1017.73 1018.20 1018.14 1018.33 1018.19 1018.63 1018.63 1018.11 1018.83 1019.73 1019.97 1019.98 1020.02 1019.96 1019.89 1019.76
1015.11 1016.25 1016.61 1016.55 1017.32 1017.75 1017.83 1017.78 1017.47 1017.55 1017.87 1018.32 1018.44 1018.98 1019.19 1019.55 1019.34 1019.03 1019.01 1018.35 1018.75 1018.39 1018.05 1017.87 1017.65 1017.50 1017.47 1017.48 1017.78 1017.59 1018.00 1018.11 1018.59 1018.56 1018.41 1018.22 1018.21 1018.68 1019.66 1019.71 1019.63 1019.61 1019.55
1015.63 1016.39 1016.43 1016.91 1017.22 1017.62 1018.10 1017.87 1017.75 1017.97 1018.15 1017.93 1018.26 1018.97 1019.19 1019.41 1019.59 1019.24 1019.11 1019.05 1019.28 1018.37 1017.85 1017.77 1017.85 1017.84 1017.73 1017.30 1017.39 1017.61 1017.77 1017.91 1017.99 1017.96 1018.53 1018.25 1018.59 1017.95 1018.16 1019.23 1019.19 1019.29 1019.26
1015.85 1016.51 1016.60 1016.99 1017.64 1017.90 1018.15 1018.10 1017.97 1018.39 1018.33 1017.99 1018.58 1019.03 1019.44 1019.37 1019.52 1019.42 1019.16 1019.21 1019.21 1018.42 1018.33 1018.37 1018.80 1018.38 1018.04 1017.83 1016.96 1017.43 1017.48 1017.67 1017.67 1017.80 1018.07 1017.70 1018.35 1018.21 1017.88 1018.37 1018.10 1018.56 1018.79
1015.65 1016.39 1016.83 1017.14 1017.91 1017.91 1018.24 1017.89 1018.31 1018.49 1018.48 1018.71 1019.04 1019.09 1019.36 1019.42 1019.61 1019.44 1019.55 1019.29 1018.69 1018.84 1019.24 1019.19 1018.84 1018.78 1018.07 1018.21 1017.54 1017.39 1017.75 1017.71 1017.55 1017.56 1017.19 1017.09 1017.92 1017.51 1017.84 1018.08 1017.88 1018.08 1017.97
1015.34 1016.20 1016.87 1017.32 1018.07 1018.07 1017.91 1018.03 1018.17 1018.19 1018.25 1018.39 1018.74 1019.08 1019.16 1019.28 1019.78 1019.56 1019.39 1019.21 1019.99 1019.44 1019.62 1019.56 1019.24 1018.54 1018.13 1018.39 1017.57 1017.03 1017.07 1017.14 1016.85 1016.92 1017.21 1017.26 1017.46 1017.27 1017.60 1017.83 1017.92 1018.25 1017.88
1014.98 1015.91 1016.70 1017.28 1018.15 1018.17 1017.99 1018.49 1018.21 1017.95 1018.31 1018.27 1018.63 1018.98 1019.11 1019.29 1019.57 1019.62 1019.72 1019.63 1019.41 1019.61 1019.65 1019.67 1019.31 1019.02 1018.25 1018.61 1018.61 1018.12 1017.05 1016.71 1016.87 1017.13 1017.58 1017.28 1017.72 1017.31 1017.32 1017.55 1017.53 1017.75 1017.81
1014.35 1015.48 1016.45 1017.40 1017.97 1018.26 1018.21 1018.40 1018.76 1018.62 1018.37 1018.68 1018.55 1018.61 1018.82 1019.16 1019.34 1019.63 1019.75 1019.78 1019.88 1019.44 1019.66 1019.73 1019.46 1019.33 1019.00 1018.26 1018.15 1018.32 1018.45 1017.93 1017.22 1016.73 1016.89 1017.29 1017.51 1017.24 1017.52 1017.11 1016.76 1017.10 1017.39
1013.68 1014.87 1015.95 1016.99 1017.71 1017.85 1018.37 1019.09 1018.60 1018.71 1019.02 1019.15 1018.53 1018.86 1019.03 1019.38 1019.53 1019.23 1019.67 1019.89 1020.01 1019.81 1019.84 1020.01 1019.82 1019.79 1019.05 1018.76 1018.00 1017.97 1018.29 1017.73 1017.63 1016.91 1016.39 1016.69 1016.94 1016.91 1016.92 1016.84 1016.96 1016.73 1016.77
1012.95 1014.22 1015.25 1016.69 1017.45 1017.97 1018.47 1018.69 1018.67 1018.69 1018.66 1018.37 1018.31 1018.63 1018.49 1018.84 1019.05 1019.27 1019.57 1019.85 1020.13 1020.11 1020.04 1020.11 1020.06 1020.10 1020.11 1019.62 1019.08 1018.71 1017.95 1017.99 1017.91 1017.33 1016.83 1017.03 1016.91 1016.63 1016.58 1016.16 1016.30 1016.68 1016.53
Thickness
5756 5746 5740 5738 5736 5736 5735 5738 5738 5740 5744 5743 5743 5743 5744 5743 5743 5740 5740 5739 5740 5739 5740 5742 5741 5741 5742 5744 5745 5744 5744 5744 5746 5745 5746 5746 5743 5745 5747 5750 5754 5750 5745
5767 5752 5743 5741 5738 5737 5739 5739 5740 5741 5742 5742 5741 5743 5741 5741 5742 5739 5739 5739 5739 5738 5739 5738 5738 5738 5740 5742 5742 5743 5744 5745 5746 5747 5749 5747 5745 5746 5747 5750 5750 5746 5746
5768 5755 5749 5743 5742 5742 5741 5741 5741 5742 5741 5742 5740 5739 5738 5740 5738 5737 5737 5737 5736 5736 5737 5737 5737 5738 5739 5741 5741 5742 5744 5747 5748 5747 5750 5751 5746 5747 5748 5749 5748 5746 5745
5773 5764 5753 5746 5744 5743 5742 5741 5741 5740 5741 5739 5739 5739 5738 5737 5735 5735 5735 5735 5735 5735 5737 5737 5737 5738 5739 5739 5740 5741 5744 5748 5752 5756 5758 5755 5752 5748 5748 5748 5746 5745 5745
5769 5765 5751 5748 5746 5744 5743 5743 5742 5741 5739 5740 5741 5740 5737 5734 5734 5735 5734 5733 5734 5735 5735 5736 5736 5736 5738 5738 5738 5741 5745 5751 5753 5756 5754 5754 5752 5747 5748 5748 5747 5746 5746
5768 5761 5750 5748 5747 5745 5743 5742 5742 5741 5741 5741 5740 5739 5738 5735 5735 5733 5734 5734 5734 5735 5734 5735 5736 5737 5738 5738 5738 5740 5746 5752 5755 5757 5753 5750 5750 5748 5747 5746 5746 5746 5746
5770 5761 5752 5748 5747 5746 5744 5742 5742 5742 5741 5741 5740 5738 5737 5736 5735 5734 5735 5734 5733 5734 5734 5735 5736 5737 5737 5738 5739 5741 5746 5753 5756 5757 5753 5751 5749 5748 5748 5748 5748 5748 5748
5779 5768 5756 5749 5748 5746 5744 5743 5743 5742 5741 5740 5740 5738 5737 5737 5735 5734 5733 5733 5733 5733 5733 5735 5736 5737 5737 5738 5740 5743 5747 5753 5761 5760 5755 5751 5749 5749 5750 5750 5750 5750 5749
5774 5769 5761 5757 5748 5746 5745 5744 5743 5742 5741 5742 5741 5740 5737 5736 5735 5734 5734 5733 5733 5733 5734 5735 5737 5737 5738 5740 5743 5746 5751 5756 5760 5759 5761 5754 5750 5751 5752 5752 5752 5752 5752
5774 5763 5763 5760 5757 5755 5749 5746 5745 5744 5744 5743 5742 5740 5739 5738 5737 5735 5734 5733 5734 5735 5736 5737 5739 5739 5741 5743 5746 5749 5754 5758 5764 5764 5758 5753 5753 5754 5755 5755 5755 5756 5755
5769 5770 5766 5764 5757 5756 5753 5748 5747 5745 5745 5744 5743 5744 5745 5749 5744 5740 5736 5734 5735 5738 5739 5741 5742 5744 5745 5750 5753 5755 5757 5768 5770 5768 5760 5755 5756 5757 5757 5757 5758 5759 5758
5765 5767 5771 5771 5764 5761 5759 5754 5753 5750 5750 5750 5749 5751 5751 5751 5748 5744 5739 5737 5740 5742 5744 5746 5750 5753 5752 5758 5762 5761 5767 5768 5770 5770 5762 5759 5760 5760 5761 5761 5762 5763 5762
5776 5777 5770 5765 5762 5765 5762 5764 5763 5756 5754 5750 5752 5755 5752 5750 5750 5750 5747 5747 5748 5749 5750 5755 5755 5758 5765 5769 5772 5772 5772 5772 5773 5771 5764 5763 5763 5764 5765 5765 5765 5765 5765
5779 5778 5778 5772 5766 5766 5765 5769 5767 5760 5756 5757 5755 5754 5754 5755 5755 5755 5758 5755 5756 5758 5757 5766 5762 5761 5763 5769 5774 5775 5776 5777 5777 5773 5766 5766 5767 5767 5767 5768 5768 5768 5768
5782 5781 5776 5770 5765 5765 5768 5768 5768 5765 5761 5758 5758 5756 5758 5756 5755 5754 5756 5760 5763 5764 5765 5766 5766 5767 5769 5774 5775 5777 5777 5777 5782 5781 5774 5771 5771 5771 5771 5772 5772 5772 5773
5785 5781 5775 5767 5764 5766 5767 5767 5765 5761 5765 5765 5762 5760 5761 5760 5759 5759 5762 5765 5765 5769 5769 5768 5769 5775 5779 5776 5776 5779 5782 5781 5782 5787 5782 5776 5776 5775 5776 5776 5776 5777 5776
5785 5780 5775 5771 5770 5768 5766 5766 5767 5770 5768 5766 5763 5759 5760 5762 5760 5764 5765 5767 5768 5766 5768 5771 5775 5780 5784 5783 5781 5783 5783 5786 5785 5787 5792 5787 5782 5782 5781 5781 5781 5780 5780
5787 5778 5779 5781 5775 5771 5770 5771 5774 5773 5772 5769 5767 5763 5762 5761 5763 5768 5769 5774 5771 5775 5779 5781 5784 5786 5787 5789 5787 5791 5789 5790 5788 5790 5792 5794 5795 5792 5787 5786 5786 5785 5784
5785 5780 5781 5780 5778 5776 5771 5774 5775 5774 5774 5775 5772 5768 5766 5766 5766 5770 5772 5772 5772 5779 5785 5787 5787 5787 5787 5792 5793 5793 5794 5794 5795 5797 5793 5796 5794 5799 5798 5792 5791 5789 5788
5785 5782 5783 5782 5777 5776 5773 5775 5776 5774 5775 5777 5775 5772 5768 5769 5769 5771 5774 5774 5776 5782 5785 5786 5782 5787 5789 5791 5799 5796 5799 5799 5800 5800 5799 5802 5797 5799 5801 5797 5798 5794 5793
5787 5783 5781 5780 5777 5778 5775 5777 5774 5772 5776 5776 5775 5774 5772 5773 5772 5774 5775 5776 5782 5783 5780 5782 5785 5784 5790 5791 5793 5795 5795 5800 5803 5804 5807 5809 5802 5805 5801 5799 5800 5797 5798
5787 5784 5781 5780 5777 5779 5781 5781 5781 5779 5781 5781 5779 5776 5776 5776 5773 5776 5777 5780 5776 5781 5779 5780 5783 5787 5792 5792 5790 5794 5784 5794 5806 5810 5809 5809 5808 5808 5805 5802 5800 5796 5798
5788 5784 5782 5781 5777 5780 5782 5778 5782 5784 5781 5781 5780 5780 5779 5778 5776 5777 5777 5779 5780 5780 5780 5781 5785 5786 5788 5790 5791 5786 5785 5781 5796 5806 5804 5809 5805 5809 5807 5804 5804 5801 5799
5793 5790 5785 5780 5778 5779 5783 5780 5775 5776 5778 5779 5782 5783 5780 5779 5779 5778 5778 5778 5777 5781 5781 5782 5786 5786 5788 5789 5795 5796 5793 5795 5787 5789 5807 5807 5808 5809 5806 5808 5810 5806 5803
5800 5793 5789 5784 5780 5782 5780 5774 5779 5779 5776 5783 5784 5781 5781 5778 5778 5780 5778 5777 5777 5779 5779 5780 5782 5783 5791 5790 5795 5796 5793 5799 5800 5798 5792 5801 5809 5812 5812 5811 5809 5809 5808
5805 5798 5792 5783 5780 5780 5778 5778 5778 5779 5781 5781 5785 5783 5786 5785 5783 5780 5779 5778 5777 5778 5779 5778 5780 5781 5781 5786 5790 5792 5796 5788 5788 5795 5797 5797 5799 5809 5814 5817 5815 5810 5811